Mmabatho, South Africa

10:00 PM SAST on July 20, 2017 (GMT +0200)
Mmabatho

Weather History for FAMM - October, 2013

Change the Weather History Date:

Saturday, October 19, 2013

  Actual Average Record
Temperature  
Mean Temperature 74 °F -  
Max Temperature 93 °F - - ()
Min Temperature 54 °F - - ()
Cooling Degree Days 8    
Growing Degree Days 24 (Base 50)    
Moisture  
Dew Point 38 °F    
Average Humidity 23    
Maximum Humidity 36    
Minimum Humidity 6    
Precipitation  
Precipitation 0.00 in - - ()
Sea Level Pressure  
Sea Level Pressure 30.03 in    
Wind  
Wind Speed 10 mph ()    
Max Wind Speed 21 mph    
Max Gust Speed 22 mph    
Visibility 9.9 miles    
Events      
T = Trace of Precipitation, MM = Missing Value Source: Averaged Metar Reports

Daily Weather History Graph

Daily Weather History Graph

Search for Another Location

Airport or City:

Trip Planner

Search our weather history database for the weather conditions in past years. The results will help you decide how hot, cold, wet, or windy it might be!

Date:

Astronomy

Oct. 19, 2013 Rise Set
Actual Time 5:39 AM SAST 6:26 PM SAST
Civil Twilight 5:15 AM SAST 6:50 PM SAST
Nautical Twilight 4:48 AM SAST 7:17 PM SAST
Astronomical Twilight 4:20 AM SAST 7:46 PM SAST
Moon 7:02 PM SAST (10/19) 5:45 AM SAST (10/19)
Length of Visible Light 13h 34m
Length of Day
12h 46m
Full, 100% of the Moon is Illuminated
Oct 19
Full
Oct 27
Last Quarter
Nov 3
New
Nov 10
First Quarter
Nov 17
Full

Hourly Weather History & Observations

Time (SAST) Temp. Dew Point Humidity Pressure Visibility Wind Dir Wind Speed Gust Speed Precip Events Conditions
12:00 AM 64.4 °F 17.6 °F 16% 30.06 in - South 5.8 mph - N/A   Unknown
4:00 AM 57.2 °F 21.2 °F 25% 30.04 in - South 4.6 mph - N/A   Unknown
5:00 AM 53.6 °F 19.4 °F 26% 30.04 in - South 5.8 mph - N/A   Unknown
6:00 AM 55.4 °F 17.6 °F 23% 30.04 in - ENE 3.5 mph - N/A   Clear
7:00 AM 68.0 °F 39.2 °F 35% 30.09 in - NNE 11.5 mph - N/A   Unknown
7:43 AM 73.4 °F 44.6 °F 36% 30.09 in - NNE 18.4 mph - N/A   Clear
8:00 AM 75 °F 47 °F 26%  in 19 mi NNE 19.6 mph - -   Clear
8:00 AM 75.2 °F 46.4 °F 36% 30.09 in - NNE 19.6 mph - N/A   Clear
9:00 AM 75.2 °F 46.4 °F 36% 30.09 in - NNE 20.7 mph - N/A   Clear
9:43 AM 80.6 °F 46.4 °F 30% 30.06 in 6.2 mi NNE 18.4 mph - N/A   Partly Cloudy
10:00 AM 80.6 °F 46.4 °F 30% 30.06 in 6.2 mi NNE 19.6 mph - N/A   Partly Cloudy
10:40 AM 82.4 °F 44.6 °F 26% 30.06 in 6.2 mi North 17.3 mph - N/A   Partly Cloudy
11:00 AM 84 °F 45 °F 16%  in 19 mi North 17.3 mph - -   Scattered Clouds
11:00 AM 82.4 °F 44.6 °F 26% 30.06 in 6.2 mi North 17.3 mph - N/A   Partly Cloudy
12:00 PM 87.8 °F 41.0 °F 19% 30.04 in 6.2 mi NNW 12.7 mph - N/A   Partly Cloudy
1:00 PM 89.6 °F 35.6 °F 15% 30.04 in 6.2 mi NNW 11.5 mph - N/A   Partly Cloudy
2:00 PM 93 °F 37 °F 7%  in 19 mi NW 10.4 mph - -   Partly Cloudy
2:00 PM 91.4 °F 37.4 °F 15% 29.98 in 6.2 mi NW 9.2 mph 21.9 mph N/A   Scattered Clouds
3:00 PM 89.6 °F 35.6 °F 15% 29.98 in 6.2 mi NW 9.2 mph - N/A   Mostly Cloudy
4:00 PM 91.4 °F 32.0 °F 12% 29.95 in 6.2 mi WNW 12.7 mph - N/A   Partly Cloudy
5:00 PM 90 °F 32 °F 6%  in 19 mi WNW 11.5 mph - -   Scattered Clouds
5:00 PM 89.6 °F 32.0 °F 13% 29.95 in 6.2 mi WNW 10.4 mph - N/A   Scattered Clouds
6:00 PM 86.0 °F 30.2 °F 13% 29.95 in - West 4.6 mph - N/A   Clear
7:00 PM 86.0 °F 30.2 °F 13% 29.95 in - West 4.6 mph - N/A   Clear
8:00 PM 83 °F 45 °F 16%  in - NNW 6.9 mph - -  
8:00 PM 82.4 °F 44.6 °F 26% 30.01 in - NNW 5.8 mph - N/A   Unknown
9:00 PM 77.0 °F 48.2 °F 36% 30.01 in - North 17.3 mph - N/A   Unknown
10:00 PM 75.2 °F 44.6 °F 34% 30.01 in - SE 4.6 mph - N/A   Unknown
11:00 PM 75 °F 46 °F 25%  in - NNE 9.2 mph - -  
11:00 PM 75.2 °F 44.6 °F 34% 30.04 in - NNE 8.1 mph - N/A   Unknown